Temp
64 64 65 65 63 63 66 69 69 67 67 67 67 66 67 68 68 69 69 69 69 68 67 66 66 64 63 63 62 61 61 60
61 63 62 61 60 61 61 67 69 68 67 66 66 65 65 66 67 68 68 69 69 68 67 66 65 64 64 64 63 61 60 61
61 60 59 59 59 57 59 67 69 68 70 69 68 67 67 67 67 67 68 68 69 68 67 66 65 65 64 63 62 60 60 61
60 63 58 56 55 57 58 63 68 69 70 68 64 64 63 63 64 66 67 67 68 68 67 67 66 65 64 63 62 61 60 60
56 59 59 55 56 56 58 62 68 66 67 67 65 63 62 62 65 65 65 66 67 68 68 67 66 65 64 63 63 63 62 59
52 56 59 57 56 56 58 60 60 61 62 63 61 61 61 61 63 63 63 63 65 67 66 67 66 65 65 64 62 62 62 61
51 56 55 53 54 54 56 59 58 61 61 60 61 60 59 59 60 61 63 64 63 65 66 66 66 65 65 64 63 63 62 63
48 49 53 53 53 55 58 58 58 58 58 58 58 59 59 59 59 59 60 62 62 63 64 64 65 65 65 65 63 63 62 61
48 50 52 51 52 53 54 55 55 56 56 55 55 56 56 57 58 58 59 60 60 61 62 64 64 65 65 64 63 63 63 62
49 50 51 51 51 51 52 52 53 52 52 54 53 53 53 53 55 57 58 60 60 60 60 62 63 63 64 64 63 63 63 63
47 51 51 50 51 50 50 50 49 51 52 51 51 50 51 52 53 53 55 58 59 59 59 60 62 63 64 63 63 63 62 62
43 42 44 48 48 48 48 48 47 48 49 49 48 48 49 50 50 50 51 53 55 58 59 60 61 62 63 62 62 62 61 61
41 40 37 40 44 44 45 45 46 47 47 47 46 46 47 47 47 48 49 49 52 54 57 60 61 61 62 61 61 61 61 60
38 37 34 34 38 40 41 43 42 43 44 44 43 43 43 43 44 45 47 48 48 50 54 56 60 61 61 61 61 61 61 61
37 35 33 33 35 36 39 40 40 40 42 42 40 40 41 41 42 43 43 45 46 48 50 54 56 60 60 60 60 60 60 61
38 37 36 36 37 37 38 38 38 38 39 39 38 39 40 40 40 41 42 44 45 45 46 49 53 56 59 59 59 60 59 59
37 37 37 36 35 35 35 36 36 36 36 36 37 37 37 37 38 39 41 43 44 44 44 45 47 52 48 47 53 58 58 57
34 34 34 35 34 34 32 34 35 34 34 34 34 34 34 35 38 38 39 40 41 42 43 44 45 48 44 45 45 57 57 56
31 32 32 33 33 32 32 33 33 32 31 31 32 32 33 36 36 36 37 38 38 39 41 43 43 44 41 42 43 53 54 53
MSLP
1005.78 1005.59 1005.38 1005.22 1005.07 1005.00 1004.66 1004.72 1004.90 1005.56 1006.35 1007.34 1008.13 1008.52 1008.78 1008.92 1009.31 1009.60 1009.97 1010.41 1011.09 1011.55 1012.14 1012.73 1013.50 1014.27 1014.82 1015.25 1015.72 1016.28 1016.41 1017.02
1005.76 1005.25 1004.86 1004.86 1004.45 1004.08 1003.59 1003.92 1004.00 1004.67 1005.54 1006.12 1006.96 1007.23 1007.73 1008.15 1008.55 1009.04 1009.40 1009.76 1010.03 1010.62 1011.43 1012.07 1012.85 1013.25 1013.82 1014.48 1015.09 1015.82 1016.38 1016.63
1005.49 1004.93 1004.74 1004.49 1003.80 1003.45 1003.33 1002.82 1003.08 1003.42 1003.96 1004.76 1005.84 1006.50 1007.09 1007.46 1008.01 1008.39 1008.56 1008.99 1008.90 1009.55 1010.59 1011.14 1012.00 1012.62 1013.22 1013.61 1014.12 1014.93 1015.42 1015.92
1005.95 1005.03 1004.51 1004.18 1003.71 1002.78 1002.53 1001.93 1002.16 1002.58 1003.25 1004.17 1005.06 1006.38 1007.05 1007.59 1007.83 1007.78 1008.34 1008.18 1008.33 1008.78 1009.63 1010.20 1010.79 1011.65 1012.30 1012.65 1013.18 1013.69 1014.24 1015.04
1006.37 1005.57 1004.61 1003.77 1003.04 1002.43 1002.21 1001.40 1002.05 1002.40 1003.06 1004.11 1004.30 1004.72 1005.94 1006.09 1007.19 1006.85 1008.30 1008.16 1008.02 1008.46 1008.99 1009.59 1010.02 1010.62 1011.38 1011.98 1012.43 1012.93 1013.33 1013.69
1007.25 1005.83 1004.61 1003.64 1003.46 1003.12 1002.55 1001.58 1002.36 1002.89 1002.97 1003.40 1004.25 1004.78 1005.22 1005.51 1006.17 1006.55 1007.42 1007.85 1008.03 1008.28 1008.58 1008.84 1009.24 1009.75 1010.47 1011.03 1011.68 1012.29 1012.48 1012.79
1007.28 1005.66 1004.28 1003.66 1003.67 1003.40 1003.50 1002.12 1002.34 1003.12 1003.43 1003.98 1004.53 1005.51 1005.60 1005.89 1005.60 1006.38 1006.73 1007.10 1007.57 1007.80 1008.18 1008.33 1008.59 1008.92 1009.52 1010.21 1010.76 1011.36 1011.68 1011.95
1007.79 1005.93 1004.63 1003.82 1004.34 1003.70 1003.69 1003.97 1003.43 1003.12 1003.27 1004.43 1006.16 1005.26 1005.83 1006.26 1006.13 1006.27 1006.72 1006.68 1007.03 1007.41 1007.76 1007.88 1008.03 1008.25 1008.74 1009.32 1009.89 1010.34 1010.83 1011.36
1008.01 1005.57 1004.40 1004.30 1005.04 1005.22 1004.68 1005.17 1005.06 1004.80 1004.24 1004.66 1006.00 1006.92 1006.91 1007.06 1006.69 1006.37 1006.40 1006.63 1006.59 1007.04 1007.18 1007.36 1007.40 1007.59 1008.05 1008.58 1009.01 1009.36 1009.88 1010.43
1008.46 1006.42 1005.32 1005.56 1005.88 1006.50 1006.40 1006.32 1006.51 1006.02 1006.24 1006.30 1006.58 1008.76 1007.81 1008.13 1007.11 1006.71 1006.61 1006.73 1006.64 1006.72 1006.80 1006.87 1006.87 1006.95 1007.12 1007.68 1008.22 1008.57 1008.98 1009.47
1009.31 1008.08 1007.18 1006.93 1006.71 1007.43 1008.08 1008.16 1008.39 1007.29 1007.44 1008.01 1007.74 1008.76 1008.73 1008.10 1007.61 1007.56 1007.39 1007.08 1006.70 1006.49 1006.41 1006.31 1006.34 1006.39 1006.55 1006.85 1007.31 1007.79 1008.25 1008.64
1011.80 1011.27 1011.01 1010.25 1008.55 1008.68 1009.33 1009.22 1008.91 1008.17 1008.55 1009.35 1008.53 1008.64 1008.22 1008.64 1008.65 1008.35 1008.23 1007.63 1007.12 1006.62 1006.21 1005.96 1005.81 1005.79 1005.96 1006.17 1006.46 1006.90 1007.30 1007.75
1013.26 1013.45 1011.95 1012.36 1011.10 1010.02 1010.42 1010.49 1010.15 1009.25 1009.45 1009.35 1008.64 1009.08 1009.19 1009.68 1009.46 1008.88 1008.37 1007.69 1007.35 1006.77 1006.16 1005.70 1005.29 1005.24 1005.50 1005.56 1005.77 1005.95 1006.49 1006.83
1013.88 1013.83 1013.40 1013.29 1012.93 1011.52 1011.63 1011.06 1011.35 1010.97 1010.41 1010.29 1010.45 1010.06 1010.26 1010.13 1010.06 1009.82 1009.35 1008.53 1007.59 1006.95 1006.52 1005.98 1005.09 1004.92 1004.75 1004.80 1005.03 1005.27 1005.70 1006.06
1015.01 1015.10 1013.83 1013.39 1013.81 1012.29 1012.57 1012.52 1011.95 1012.10 1011.14 1011.06 1010.66 1011.03 1011.13 1010.97 1010.64 1009.85 1009.18 1008.71 1007.93 1007.41 1006.79 1006.07 1005.51 1004.63 1004.41 1004.24 1004.41 1004.75 1005.04 1005.34
1016.04 1015.76 1015.20 1015.65 1015.65 1013.72 1013.38 1013.53 1014.03 1013.12 1012.05 1011.86 1012.22 1011.90 1011.63 1011.46 1010.91 1010.33 1009.67 1008.86 1007.88 1007.44 1006.87 1005.99 1005.32 1004.79 1003.93 1004.00 1004.02 1004.05 1004.46 1004.85
1016.92 1016.87 1016.74 1016.63 1016.43 1015.63 1015.35 1015.49 1014.94 1014.21 1013.72 1013.26 1012.37 1011.88 1011.41 1011.52 1011.02 1010.52 1009.48 1008.56 1008.03 1007.51 1006.90 1006.23 1005.47 1004.74 1004.12 1003.56 1003.63 1003.61 1003.80 1004.28
1018.04 1017.55 1016.65 1016.83 1016.25 1015.47 1014.90 1015.33 1015.31 1014.73 1014.38 1013.81 1012.92 1012.49 1012.01 1011.66 1010.84 1010.19 1009.35 1008.81 1008.22 1007.66 1007.08 1006.41 1005.58 1004.75 1004.26 1003.73 1003.22 1003.00 1003.26 1003.38
1019.64 1019.24 1018.95 1018.45 1017.92 1017.16 1016.85 1016.37 1016.04 1015.38 1014.81 1014.38 1013.94 1013.34 1012.74 1012.16 1011.34 1010.65 1009.61 1008.90 1008.31 1007.69 1006.98 1006.25 1005.59 1004.81 1004.41 1003.84 1003.09 1002.65 1002.73 1003.05
Wind_Speed
10 10 9 10 9 9 11 12 17 18 12 9 8 8 9 10 11 12 12 11 12 9 7 9 9 8 8 8 8 6 4 6
9 9 9 9 10 10 10 13 17 12 12 12 11 12 11 10 10 13 16 15 14 13 8 9 10 11 12 11 9 9 3 6
10 9 8 9 10 9 9 15 16 16 14 12 7 9 8 9 8 12 14 15 16 13 13 11 12 10 11 12 10 5 3 9
16 14 8 8 10 9 9 11 14 14 14 9 6 5 1 3 4 7 10 13 13 15 15 11 12 10 10 12 12 14 9 8
16 16 15 10 10 7 7 8 12 8 11 10 13 10 6 5 6 7 8 11 14 14 13 13 12 9 10 11 10 12 10 11
21 19 14 9 4 5 2 10 8 7 8 11 6 3 3 3 4 6 7 5 7 12 12 13 12 10 11 12 12 13 11 9
22 18 10 3 2 5 5 10 12 10 11 7 8 7 5 1 5 3 4 6 6 10 11 12 11 12 13 11 13 14 12 10
20 20 8 5 5 5 6 5 10 12 14 13 6 9 6 3 2 4 3 3 4 8 9 11 10 12 13 12 13 14 13 12
21 22 6 7 6 8 10 10 11 11 13 14 11 9 5 4 3 2 1 3 3 4 6 10 13 13 13 13 11 12 14 13
23 11 12 12 14 13 11 11 11 13 13 11 13 6 7 5 5 4 3 4 3 5 6 8 11 12 14 13 10 13 12 13
22 14 15 14 15 15 14 12 8 12 11 10 9 7 6 8 8 7 6 6 5 5 6 7 8 11 12 14 12 12 13 11
21 21 20 15 14 16 12 12 14 13 13 7 10 10 12 10 7 7 7 6 6 8 6 6 8 9 12 12 12 12 15 14
16 16 18 18 15 17 15 13 13 14 10 11 13 11 12 10 10 12 10 9 8 8 8 8 8 9 10 12 13 11 15 14
12 14 11 11 14 14 14 16 15 13 11 10 9 10 9 10 11 9 9 9 10 10 8 9 7 9 11 12 12 12 14 13
15 11 11 13 15 14 16 15 16 15 12 11 11 10 9 9 10 10 11 10 8 8 10 10 9 9 8 9 11 12 13 13
17 16 14 13 13 16 17 16 13 14 13 12 10 9 9 9 9 9 9 9 9 10 11 9 9 10 8 10 11 11 11 10
18 18 17 15 15 13 10 10 12 11 10 10 11 12 12 11 10 10 9 10 11 11 13 12 11 7 12 13 11 10 12 12
18 19 19 16 17 17 17 15 12 11 11 12 13 13 13 13 12 12 12 12 11 11 10 10 12 11 14 16 17 12 12 13
15 14 14 13 14 14 14 14 13 13 13 13 12 12 13 12 13 13 13 12 12 11 11 11 11 10 14 17 18 15 10 9
Wind_Direction
260 257 258 265 252 239 229 207 202 195 186 178 182 184 196 195 195 200 190 195 192 178 178 178 183 187 191 188 186 183 183 167
266 273 274 268 251 253 219 199 206 185 188 183 189 193 193 196 198 198 195 197 191 190 188 182 190 196 198 189 187 184 177 156
284 270 259 265 260 236 230 211 197 193 186 189 189 191 207 200 190 193 196 198 190 184 195 192 194 203 195 187 182 170 158 174
308 308 276 251 260 252 224 206 203 194 188 162 119 116 124 151 198 194 214 195 192 188 197 194 191 197 203 190 190 186 176 184
316 312 300 267 247 231 206 150 179 148 156 169 170 169 164 170 199 165 223 215 202 198 200 198 197 189 197 193 199 199 189 184
304 296 284 250 281 308 215 112 102 124 139 164 151 197 121 122 150 155 176 208 228 213 207 204 199 192 203 195 190 203 196 184
311 302 269 246 1 33 341 109 106 102 99 57 113 139 113 39 137 168 181 205 207 219 215 213 206 202 200 196 196 203 199 199
320 314 251 105 357 78 70 9 77 103 86 73 343 68 65 103 140 148 188 198 203 226 221 217 212 208 207 202 199 199 199 205
327 315 211 112 55 19 63 52 49 45 57 85 43 14 14 5 14 52 266 249 209 225 221 224 215 206 207 204 201 203 201 205
337 353 69 71 65 45 47 59 59 51 47 44 64 347 28 342 0 16 350 290 260 238 219 223 222 209 199 197 205 206 201 207
340 20 56 64 62 53 34 32 46 62 65 39 54 30 9 5 10 12 357 337 313 286 246 220 219 218 208 200 203 203 202 204
17 24 4 18 59 56 40 31 25 49 43 31 42 24 17 3 353 352 338 322 325 319 282 242 227 219 210 200 199 198 200 200
27 14 29 354 26 42 33 24 14 32 35 20 34 22 12 354 341 339 335 337 330 317 321 278 244 218 210 209 204 194 199 199
18 18 18 1 5 38 28 26 13 9 21 22 21 21 357 347 333 330 322 320 323 323 307 311 268 240 222 208 209 198 201 202
14 10 22 12 354 30 17 6 8 352 7 12 13 4 348 334 321 325 326 321 316 321 318 304 304 258 237 221 213 207 207 204
15 8 16 8 356 17 8 359 350 348 357 359 348 342 341 328 326 321 312 313 330 323 318 310 308 311 232 227 219 207 204 200
2 4 2 355 352 2 13 344 346 348 344 339 342 342 347 333 325 315 324 338 333 326 322 318 314 304 294 217 216 214 206 196
359 354 353 355 353 354 358 350 345 347 344 342 344 340 336 329 329 328 338 333 325 318 309 307 306 307 312 266 223 219 211 208
357 348 344 346 345 352 342 344 344 343 345 341 337 336 332 324 330 326 331 331 325 316 309 307 301 304 310 311 243 224 219 208